#timestamp,LO_Frequency,Hit,Temp,Hum 
1487077215.7,286047029.4,N,0.0,0.0
1487077235.5,286047029.1,N,0.0,0.0
1487077255.4,286047030.4,N,0.0,0.0
1487077275.2,286047030.6,Y,0.0,0.0
1487077295.0,286047006.3,N,0.0,0.0
1487077295.9,286047006.3,N,0.0,0.0
1487077315.8,286047006.4,N,0.0,0.0
1487077335.6,286047008.8,N,0.0,0.0
1487077355.4,286047007.8,N,0.0,0.0
1487077375.3,286047008.1,N,0.0,0.0
1487077395.1,286047007.9,N,0.0,0.0
1487077396.0,286047007.9,N,0.0,0.0
1487077415.8,286047008.4,N,0.0,0.0
1487077435.7,286047008.4,N,0.0,0.0
1487077455.5,286047027.4,N,0.0,0.0
1487077475.4,286047009.4,N,0.0,0.0
1487077495.2,286047008.0,N,0.0,0.0
1487077515.0,286047009.8,N,0.0,0.0
1487077515.9,286047009.8,N,0.0,0.0
1487077535.8,286047012.1,N,0.0,0.0
1487077555.6,286047015.0,N,0.0,0.0
1487077575.5,286047015.4,N,0.0,0.0
1487077595.3,286047015.0,N,0.0,0.0
1487077615.1,286047016.8,N,0.0,0.0
1487077635.9,286047017.9,N,0.0,0.0
1487077655.7,286047018.8,N,0.0,0.0
1487077675.5,286047015.9,N,0.0,0.0
1487077695.4,286047014.8,N,0.0,0.0
1487077715.2,286047014.1,N,0.0,0.0
1487077735.0,286047016.5,N,0.0,0.0
1487077735.9,286047016.5,N,0.0,0.0
1487077755.8,286047015.9,N,0.0,0.0
1487077775.6,286047019.3,Y,0.0,0.0
1487077795.4,286047009.0,N,0.0,0.0
1487077815.3,286047006.1,N,0.0,0.0
1487077835.1,286047009.0,N,0.0,0.0
1487077855.8,286047010.8,N,0.0,0.0
1487077875.7,286047010.1,N,0.0,0.0
1487077895.5,286047012.4,N,0.0,0.0
1487077915.3,286047008.4,N,0.0,0.0
1487077935.2,286047009.5,N,0.0,0.0
1487077955.9,286047011.4,N,0.0,0.0
1487077975.9,286047011.0,N,0.0,0.0
1487077995.7,286047009.8,N,0.0,0.0
1487078015.6,286047011.1,N,0.0,0.0
1487078035.4,286047012.9,Y,0.0,0.0
1487078055.2,286047000.4,N,0.0,0.0
1487078075.1,286047000.6,N,0.0,0.0
1487078076.0,286047000.6,N,0.0,0.0
1487078095.8,286047002.6,N,0.0,0.0
1487078115.6,286047001.7,N,0.0,0.0
1487078135.5,286047002.9,N,0.0,0.0
1487078155.3,286047004.0,N,0.0,0.0
1487078175.1,286047005.3,N,0.0,0.0
1487078195.9,286047006.3,N,0.0,0.0
1487078215.7,286047006.5,N,0.0,0.0
1487078235.5,286047007.2,N,0.0,0.0
1487078255.4,286047004.6,N,0.0,0.0
1487078275.2,286047010.4,N,0.0,0.0
1487078295.0,286047008.9,N,0.0,0.0
1487078295.9,286047008.9,N,0.0,0.0
1487078315.8,286047010.7,N,0.0,0.0
1487078335.6,286047013.8,Y,0.0,0.0
1487078355.4,286047004.5,N,0.0,0.0
1487078375.3,286047005.1,N,0.0,0.0
1487078395.1,286046998.9,N,0.0,0.0
1487078396.0,286046998.9,N,0.0,0.0
1487078415.8,286046991.9,N,0.0,0.0
1487078435.7,286047010.3,N,0.0,0.0
1487078455.5,286047008.7,N,0.0,0.0
1487078475.3,286047005.8,N,0.0,0.0
1487078495.1,286047004.4,N,0.0,0.0
1487078515.9,286047006.2,N,0.0,0.0
1487078535.7,286047007.1,N,0.0,0.0
1487078555.5,286047006.9,N,0.0,0.0
1487078575.4,286047007.1,N,0.0,0.0
1487078595.2,286047004.9,N,0.0,0.0
1487078615.0,286047012.0,N,0.0,0.0
1487078615.9,286047012.0,N,0.0,0.0
1487078635.8,286047009.2,N,0.0,0.0
1487078655.6,286047007.7,N,0.0,0.0
1487078675.9,286047010.6,N,0.0,0.0
1487078695.7,286047010.7,N,0.0,0.0
1487078715.5,286047008.1,N,0.0,0.0
1487078735.4,286047009.6,N,0.0,0.0
1487078755.7,286047011.8,N,0.0,0.0
1487078775.5,286047013.6,Y,0.0,0.0
1487078795.3,286047006.3,N,0.0,0.0
1487078815.2,286047008.8,N,0.0,0.0
1487078835.9,286047005.9,N,0.0,0.0
1487078855.7,286047003.0,N,0.0,0.0
1487078875.6,286047003.6,N,0.0,0.0
1487078895.4,286047006.8,N,0.0,0.0
1487078915.2,286047007.3,N,0.0,0.0
1487078935.0,286047007.2,N,0.0,0.0
1487078936.0,286047007.2,N,0.0,0.0
1487078955.8,286047008.0,N,0.0,0.0
1487078975.6,286047010.6,N,0.0,0.0
1487078995.4,286047010.4,N,0.0,0.0
1487079015.3,286047006.8,N,0.0,0.0
1487079035.1,286047007.7,N,0.0,0.0
1487079055.9,286047010.6,Y,0.0,0.0
1487079075.7,286047001.3,N,0.0,0.0
1487079095.5,286047003.0,N,0.0,0.0
1487079115.3,286047005.1,N,0.0,0.0
1487079135.2,286047003.9,N,0.0,0.0
1487079155.0,286047005.7,N,0.0,0.0
1487079155.9,286047005.7,N,0.0,0.0
1487079175.7,286047005.3,N,0.0,0.0
1487079195.6,286047006.4,N,0.0,0.0
1487079215.4,286047007.9,N,0.0,0.0
1487079235.2,286047005.7,N,0.0,0.0
1487079255.1,286047009.2,Y,0.0,0.0
1487079256.0,286047009.2,Y,0.0,0.0
1487079275.8,286046992.3,N,0.0,0.0
1487079295.7,286046994.5,N,0.0,0.0
1487079315.5,286046995.7,N,0.0,0.0
1487079335.3,286046994.1,N,0.0,0.0
1487079355.2,286046993.4,N,0.0,0.0
1487079375.9,286046998.8,N,0.0,0.0
1487079395.7,286046993.6,N,0.0,0.0
1487079415.5,286046994.9,N,0.0,0.0
1487079435.4,286046996.1,N,0.0,0.0
1487079455.2,286046996.1,N,0.0,0.0
1487079475.0,286046998.0,N,0.0,0.0
1487079475.9,286046998.0,N,0.0,0.0
1487079495.8,286047005.9,N,0.0,0.0
1487079515.6,286046978.1,Y,0.0,0.0
1487079535.5,286046996.1,N,0.0,0.0
1487079555.3,286046997.1,N,0.0,0.0
1487079575.1,286046996.9,N,0.0,0.0
1487079595.8,286046996.7,N,0.0,0.0
1487079615.7,286046997.8,N,0.0,0.0
1487079635.5,286046996.7,N,0.0,0.0
1487079655.3,286046997.3,N,0.0,0.0
1487079675.2,286046997.4,N,0.0,0.0
1487079695.0,286047001.1,N,0.0,0.0
1487079695.9,286047001.1,N,0.0,0.0
1487079715.7,286047002.5,N,0.0,0.0
1487079735.6,286047000.3,N,0.0,0.0
1487079755.4,286047000.6,N,0.0,0.0
1487079775.2,286047002.7,N,0.0,0.0
1487079795.1,286047000.1,N,0.0,0.0
1487079796.0,286047000.1,N,0.0,0.0
1487079815.8,286046999.7,N,0.0,0.0
1487079835.6,286047004.4,N,0.0,0.0
1487079855.5,286047001.8,N,0.0,0.0
1487079875.3,286047001.7,N,0.0,0.0
1487079895.1,286047001.6,N,0.0,0.0
1487079915.9,286047001.6,N,0.0,0.0
1487079935.7,286047004.3,N,0.0,0.0
1487079955.5,286047002.9,N,0.0,0.0
1487079975.4,286047006.3,N,0.0,0.0
1487079995.2,286047007.2,N,0.0,0.0
1487080015.0,286047007.3,N,0.0,0.0
1487080015.9,286047007.3,N,0.0,0.0
1487080035.8,286047006.1,N,0.0,0.0
1487080055.6,286047008.7,N,0.0,0.0
1487080075.4,286047007.6,N,0.0,0.0
1487080095.3,286047007.4,N,0.0,0.0
1487080115.1,286047008.0,N,0.0,0.0
1487080116.0,286047008.0,N,0.0,0.0
1487080135.8,286047008.1,N,0.0,0.0
1487080155.7,286047009.4,N,0.0,0.0
1487080175.5,286047009.6,N,0.0,0.0
1487080195.3,286047011.9,N,0.0,0.0
1487080215.2,286047007.9,N,0.0,0.0
1487080235.9,286047008.9,N,0.0,0.0
1487080255.7,286047009.7,N,0.0,0.0
1487080275.6,286047011.9,N,0.0,0.0
1487080295.4,286047010.7,N,0.0,0.0
1487080315.2,286047009.5,N,0.0,0.0
1487080335.0,286047010.9,N,0.0,0.0
1487080335.9,286047010.9,N,0.0,0.0
1487080355.8,286047013.1,Y,0.0,0.0
1487080375.6,286047004.9,N,0.0,0.0
1487080395.5,286047006.3,N,0.0,0.0
1487080415.3,286047004.0,N,0.0,0.0
1487080435.1,286047001.3,N,0.0,0.0
1487080455.8,286047006.8,N,0.0,0.0
1487080475.7,286047007.4,N,0.0,0.0
1487080495.5,286047005.5,N,0.0,0.0
1487080515.3,286047006.6,N,0.0,0.0
1487080535.2,286047006.3,N,0.0,0.0
1487080555.9,286047005.0,N,0.0,0.0
1487080575.7,286047005.1,N,0.0,0.0
1487080595.6,286047005.9,N,0.0,0.0
1487080615.4,286047002.2,N,0.0,0.0
1487080635.2,286047000.0,N,0.0,0.0
1487080655.1,286046995.4,N,0.0,0.0
1487080656.0,286046995.4,N,0.0,0.0
1487080675.8,286046998.2,N,0.0,0.0
1487080695.6,286046997.6,N,0.0,0.0
1487080715.5,286046995.7,N,0.0,0.0
1487080735.3,286046994.8,N,0.0,0.0
1487080755.1,286046991.8,N,0.0,0.0
1487080775.9,286046992.0,N,0.0,0.0
1487080795.7,286046992.0,N,0.0,0.0
